Regional Weather Roundup
Issued by NWS

Home | Current Version | Previous Version | Text Only | Print | Product List | Glossary Off
Versions: 1 2 3 4 5 6 7 8 9 10 11 12 13 14 15 16 17 18 19 20 21 22 23 24 25 26 27 28 29 30 31 32 33 34 35 36 37 38 39 40 41 42 43 44 45 46 47 48 49 50

000
ASUS43 KOAX 291802
RWRNE

WEATHER ROUNDUP FOR NEBRASKA
NATIONAL WEATHER SERVICE OMAHA NE
100 PM CDT MON SEP 29 2014

NOTES: SATELLITE DATA IS BEING USED TO AUGMENT CLOUD COVER ABOVE
       12000 FEET.
       "FAIR" INDICATES FEW OR NO CLOUDS BELOW 12,000 FEET WITH NO
       SIGNIFICANT WEATHER AND/OR OBSTRUCTIONS TO VISIBILITY.

  * THESE STATIONS DO NOT REPORT WEATHER SUCH AS RAIN...SNOW OR FOG.

NEZ001>004-019>022-054>056-291900-
NEBRASKA PANHANDLE

CITY           SKY/WX    TMP DP  RH WIND       PRES   REMARKS
SCOTTSBLUFF    CLOUDY    61  57  87 SW3       30.00F
6HR MIN TEMP:  53; 6HR MAX TEMP:  62; 6HR PCP:  0.73;

ALLIANCE       LGT RAIN  58  57  97 E12       29.99F FOG
6HR MIN TEMP:  54; 6HR MAX TEMP:  58; 6HR PCP:  0.13;

CHADRON        CLOUDY    54  53  97 NE10      30.00F
6HR MIN TEMP:  51; 6HR MAX TEMP:  54;

KIMBALL        CLOUDY    62  53  73 NE8       30.00F
SIDNEY         CLOUDY    64  56  75 E7        30.00F
6HR MIN TEMP:  55; 6HR MAX TEMP:  64; 6HR PCP:  0.19;

$$

NEZ057>060-069>072-079>082-291900-
SOUTHWEST NEBRASKA

CITY           SKY/WX    TMP DP  RH WIND       PRES   REMARKS
NORTH PLATTE   PTSUNNY   81  53  37 S16G29    29.98F
6HR MIN TEMP:  56; 6HR MAX TEMP:  81;

IMPERIAL       CLOUDY    76  55  48 SE21G30   29.96F
6HR MIN TEMP:  60; 6HR MAX TEMP:  78;

LEXINGTON      SUNNY     80  57  45 SE23      30.01F
MCCOOK         MOSUNNY   82  52  35 SE21G31   29.98F
6HR MIN TEMP:  58; 6HR MAX TEMP:  82;

OGALLALA       CLOUDY    74  58  57 SE16      29.97F
$$

NEZ005>010-023>029-035>040-094-291900-
NORTH CENTRAL NEBRASKA

CITY           SKY/WX    TMP DP  RH WIND       PRES   REMARKS
VALENTINE      CLOUDY    62  56  80 SE9       30.05S
6HR MIN TEMP:  53; 6HR MAX TEMP:  62;

AINSWORTH      MOSUNNY   64  58  81 E13       30.03F
BROKEN BOW     SUNNY     81  58  45 S16G25    30.01F
6HR MIN TEMP:  51; 6HR MAX TEMP:  81;

O`NEILL        SUNNY     71  62  73 E6        30.05F
ORD            SUNNY     80  57  45 S12G21    30.01F
6HR MIN TEMP:  51; 6HR MAX TEMP:  80;

THEDFORD       CLOUDY    80  52  37 S22G29    30.01F
$$

NEZ041-046>049-061>064-073>077-083>087-291900-
SOUTH CENTRAL NEBRASKA

CITY           SKY/WX    TMP DP  RH WIND       PRES   REMARKS
GRAND ISLAND   SUNNY     82  57  42 S12G20    30.03F
6HR MIN TEMP:  57; 6HR MAX TEMP:  82;

AURORA         SUNNY     81  51  34 S10       30.04F
HASTINGS       SUNNY     80  52  37 S10G20    30.03F
6HR MIN TEMP:  59; 6HR MAX TEMP:  81;

HEBRON         SUNNY     82  50  32 S8        30.04F
HOLDREGE       SUNNY     79  55  43 S14       30.02F
KEARNEY *      MOSUNNY   81  57  44 SE16      30.03F
YORK           SUNNY     81  57  44 S7        30.04F
$$

NEZ011>018-030>034-042>045-291900-
NORTHEAST NEBRASKA

CITY           SKY/WX    TMP DP  RH WIND       PRES   REMARKS
NORFOLK        SUNNY     79  57  46 SE5       30.04F
6HR MIN TEMP:  59; 6HR MAX TEMP:  80;

ALBION         SUNNY     78  57  47 SE8       30.04F
BLAIR          SUNNY     81  56  41 S3        30.05F
COLUMBUS *     SUNNY     79  57  47 S3        30.06F
FREMONT        SUNNY     80  58  47 E3        30.05F
WAYNE          SUNNY     81  58  45 E5        30.04F
$$

NEZ050>053-065>068-078-088>093-291900-
SOUTHEAST NEBRASKA

CITY           SKY/WX    TMP DP  RH WIND       PRES   REMARKS
LINCOLN        SUNNY     79  61  53 CALM      30.06F
6HR MIN TEMP:  57; 6HR MAX TEMP:  80;

OMAHA EPPLEY   MOSUNNY   78  57  48 S3        30.05F
6HR MIN TEMP:  60; 6HR MAX TEMP:  79;

BEATRICE       SUNNY     81  58  45 SW6       30.04F
FALLS CITY     MOSUNNY   82  58  43 S3        30.05F
6HR MIN TEMP:  55; 6HR MAX TEMP:  82;

NEBRASKA CITY  SUNNY     79  55  43 CALM      30.05F
PLATTSMOUTH    SUNNY     79  57  46 E3        30.06F
$$

NEZ044-045-051>053-067-291900-
OMAHA AREA

CITY           SKY/WX    TMP DP  RH WIND       PRES   REMARKS
OMAHA EPPLEY   MOSUNNY   78  57  48 S3        30.05F
6HR MIN TEMP:  60; 6HR MAX TEMP:  79;

BLAIR          SUNNY     81  56  41 S3        30.05F
FREMONT        SUNNY     80  58  47 E3        30.05F
MILLARD        SUNNY     79  61  52 SE3       30.05F
OFFUTT AFB     SUNNY     80  61  52 VRB1      30.05F
PLATTSMOUTH    SUNNY     79  57  46 E3        30.06F
WAHOO          FAIR      81  54  39 S5        30.05F
$$



USA.gov is the U.S. government's official web portal to all federal, state and local government web resources and services.